Regional Weather Roundup
Issued by NWS

Home | Current Version | Previous Version | Text Only | Print | Product List | Glossary Off
Versions: 1 2 3 4 5 6 7 8 9 10 11 12 13 14 15 16 17 18 19 20 21 22 23 24 25 26 27 28 29 30 31 32 33 34 35 36 37 38 39 40 41 42 43 44 45 46 47 48 49 50

000
ASUS45 KCYS 300410
RWRWY

WYOMING REGIONAL WEATHER ROUNDUP
NATIONAL WEATHER SERVICE CHEYENNE WY
1000 PM MDT FRI MAY 29 2015

NOTE:  "FAIR" INDICATES FEW OR NO CLOUDS BELOW 12,000 FEET
WITH NO SIGNIFICANT WEATHER AND/OR OBSTRUCTIONS TO VISIBILITY.

WYZ001-300500-
YELLOWSTONE NATIONAL PARK

CITY           SKY/WX    TMP DP  RH WIND       PRES   REMARKS
LK YELLOWSTONE   N/A     40  37  89 CALM      30.31R
W YELLOWSTONE  NOT AVBL

$$
WYZ002>013-054>058-071-098>099-300500-
NORTHERN WYOMING

CITY           SKY/WX    TMP DP  RH WIND       PRES   REMARKS
JACKSON        MOCLDY    54  43  66 NE3       30.24R
CODY           FAIR      54  48  82 CALM      30.19S
GREYBULL         N/A     61  43  51 S5        30.16S
WORLAND        FAIR      57  46  66 S14       30.18S
SHERIDAN       FAIR      49  44  83 SE5       30.21F
BUFFALO          N/A    N/A N/A N/A MISG      30.25F
GILLETTE       FAIR      43  37  79 SW5       30.26R
HULETT         FAIR      43  36  75 S7        30.29R
NEWCASTLE      FAIR      43  43 100 SE6       30.30S

$$
WYZ014>020-022>026-101>103-300500-
CENTRAL WYOMING

CITY           SKY/WX    TMP DP  RH WIND       PRES   REMARKS
BIG PINEY      FAIR      50  40  68 CALM      30.29R
PINEDALE       FAIR      45  41  87 CALM      30.31R
DUBOIS         FAIR      43  41  93 CALM      30.31R
LANDER         MOCLDY    55  46  71 SW6       30.24S
RIVERTON       FAIR      52  45  77 NE7       30.26R
CASPER         FAIR      46  42  86 NE5       30.29S
DOUGLAS        FAIR      45  43  93 E3        30.30R

$$
WYZ021-027>030-104>119-300500-
SOUTHERN WYOMING

CITY           SKY/WX    TMP DP  RH WIND       PRES   REMARKS
EVANSTON       FAIR      55  41  59 E7        30.28R
KEMMERER       FAIR      54  36  50 SE6       30.30R
FORT BRIDGER   CLEAR     54  43  66 SE8       30.31R
ROCK SPRINGS   FAIR      51  41  68 SE9       30.29R
DIXON          FAIR      47  42  82 NE7       30.33S
RAWLINS        FAIR      46  39  76 NE8       30.32S
SARATOGA       FAIR      45  39  81 CALM      30.34S
LARAMIE        FAIR      40  37  89 S5        30.35R
CHEYENNE       FAIR      46  43  89 N3        30.34S
TORRINGTON     FAIR      46  44  93 E5        30.29S
PINE BLUFFS    CLOUDY    46  43  87 NE5       30.33S

$$



USA.gov is the U.S. government's official web portal to all federal, state and local government web resources and services.